Home   Weather   Tampa   Past weeks

Flag for USA Past Weather in Tampa, Florida, USA — Yesterday and Last 2 Weeks

Now
82 °F

Broken clouds.


Feels Like: 87 °F
Forecast: 76 / 90 °F
Wind: 16 mph from East

Location: Tampa, Peter O Knight Airport

Current Time: Sep 26, 2016 at 4:55:20 PM

Latest Report: Sep 26, 2016 at 4:15 PM


Visibility: 10 mi

Pressure: 29.96 "Hg

Humidity: 70%

Dew Point: 72 °F

Location of TampaLocation

Past Weather in Tampa — Graph

°F

Tampa Temperature Yesterday

Maximum temperature yesterday: 93 °F (at 2:15 PM)
Minimum temperature yesterday: 77 °F (at 1:15 AM)
Average temperature yesterday: 83 °F

High & Low Weather Summary for the Past Weeks

 TemperatureHumidityPressure
High97 °F (Sep 11, 4:15 PM)100% (Sep 12, 5:15 AM)30.07 "Hg (Sep 12, 5:15 AM)
Low77 °F (Sep 13, 5:55 AM)47% (Sep 11, 4:15 PM)29.92 "Hg (Sep 13, 4:15 PM)
Average84 °F80%30.00 "Hg
* Reported Sep 11 3:15 PM — Sep 26 3:15 PM, Tampa, Weather by CustomWeather, © 2016

Note: Actual official high and low records may vary slightly from our data, if they occured in-between our weather recording intervals... More about our weather records

Advertising

Tampa Weather History for the Previous 24 Hours

Scroll right to see more
 ConditionsComfort  
Time TempWeatherWind HumidityBarometerVisibility
3:15 PM
Mon, Sep 26
86 °FLight rain. Sunny.7 mph75%29.94 "Hg10 mi
2:55 PM88 °FSunny.8 mph66%29.94 "Hg10 mi
2:35 PM90 °FSunny.6 mph59%29.94 "Hg10 mi
2:15 PM91 °FSunny.5 mph56%29.94 "Hg10 mi
1:55 PM91 °FSunny.6 mph59%29.95 "Hg10 mi
1:35 PM91 °FSunny.3 mph59%29.97 "Hg10 mi
1:15 PM90 °FSunny.5 mph67%29.97 "Hg10 mi
12:55 PM90 °FSunny.5 mph67%29.98 "Hg10 mi
12:35 PM90 °FSunny.3 mph67%29.99 "Hg10 mi
12:15 PM88 °FSunny.No wind75%29.99 "Hg10 mi
11:55 AM86 °FSunny.3 mph79%30.00 "Hg10 mi
11:35 AM88 °FSunny.7 mph75%30.01 "Hg10 mi
11:15 AM88 °FSunny.8 mph75%30.01 "Hg10 mi
10:55 AM86 °FSunny.6 mph79%30.02 "Hg10 mi
10:35 AM86 °FSunny.6 mph79%30.02 "Hg10 mi
10:15 AM86 °FSunny.6 mph79%30.01 "Hg10 mi
9:55 AM84 °FSunny.6 mph84%30.01 "Hg10 mi
9:15 AM82 °FSunny.8 mph89%30.01 "Hg10 mi
8:55 AM82 °FSunny.6 mph89%30.01 "Hg10 mi
8:35 AM79 °FSunny.3 mph94%30.01 "Hg10 mi
8:15 AM79 °FSunny.No wind94%30.01 "Hg10 mi
7:55 AM79 °FSunny.5 mph94%30.00 "Hg10 mi
7:35 AM79 °FSunny.3 mph94%30.00 "Hg10 mi
7:15 AM79 °FClear.3 mph94%30.00 "Hg10 mi
6:55 AM79 °FClear.No wind94%29.99 "Hg10 mi
6:35 AM79 °FClear.6 mph94%29.98 "Hg10 mi
6:15 AM79 °FClear.3 mph94%29.97 "Hg10 mi
5:55 AM79 °FClear.6 mph94%29.97 "Hg10 mi
5:35 AM79 °FClear.6 mph94%29.97 "Hg10 mi
5:15 AM79 °FClear.6 mph94%29.96 "Hg10 mi
4:55 AM79 °FClear.5 mph94%29.96 "Hg10 mi
4:15 AM79 °FClear.6 mph94%29.97 "Hg10 mi
3:55 AM79 °FClear.7 mph94%29.97 "Hg10 mi
3:15 AM79 °FClear.7 mph94%29.98 "Hg10 mi
2:55 AM79 °FClear.6 mph94%29.98 "Hg10 mi
2:35 AM79 °FClear.7 mph94%29.98 "Hg10 mi
2:15 AM79 °FClear.3 mph94%29.98 "Hg10 mi
1:55 AM79 °FClear.No wind94%29.98 "Hg10 mi
1:35 AM79 °FClear.3 mph94%29.99 "Hg10 mi
1:15 AM79 °FPassing clouds.No wind94%30.00 "Hg10 mi
12:55 AM79 °FPassing clouds.6 mph94%30.01 "Hg10 mi
12:35 AM79 °FPassing clouds.3 mph94%30.01 "Hg10 mi
12:15 AM79 °FPartly cloudy.No wind94%30.02 "Hg10 mi
11:55 PM
Sun, Sep 25
81 °FPassing clouds.3 mph89%30.03 "Hg10 mi
11:35 PM81 °FPassing clouds.5 mph89%30.04 "Hg10 mi
11:15 PM81 °FClear.3 mph89%30.02 "Hg10 mi
10:55 PM81 °FClear.7 mph89%30.02 "Hg10 mi
10:35 PM81 °FPassing clouds.6 mph89%30.03 "Hg10 mi
10:15 PM81 °FPartly cloudy.No wind89%30.03 "Hg10 mi
9:55 PM81 °FPartly cloudy.6 mph89%30.02 "Hg10 mi
9:35 PM81 °FPassing clouds.10 mph89%30.02 "Hg10 mi
9:15 PM81 °FPartly cloudy.16 mph89%30.01 "Hg10 mi
8:55 PM81 °FPassing clouds.13 mph89%30.01 "Hg10 mi
8:35 PM79 °FLight rain. Passing clouds.No wind89%29.99 "Hg10 mi
8:15 PM79 °FLight rain. Partly cloudy.3 mph84%29.97 "Hg10 mi
7:55 PM79 °FLight rain. Overcast.10 mph89%29.98 "Hg10 mi
7:35 PM79 °FRain. Partly cloudy.16 mph79%29.97 "Hg10 mi
7:15 PM82 °FLight rain. Scattered clouds.15 mph70%29.96 "Hg10 mi
6:55 PM90 °FScattered clouds.6 mph59%29.95 "Hg10 mi
6:35 PM90 °FSunny.No wind59%29.94 "Hg10 mi
6:15 PM91 °FSunny.5 mph56%29.94 "Hg10 mi
5:55 PM91 °FScattered clouds.5 mph59%29.93 "Hg10 mi
5:35 PM91 °FSunny.No wind56%29.94 "Hg10 mi
5:15 PM91 °FSunny.5 mph56%29.95 "Hg10 mi
4:55 PM91 °FSunny.6 mph56%29.95 "Hg10 mi
4:15 PM91 °FSunny.5 mph59%29.95 "Hg10 mi
Weather by CustomWeather, © 2016

See weather overviewHow to use our weather pages